User: anonymous
Location: NJAA Observatory
(40.6819°N, 74.8979°W)
Time: 17:00:05
(UTC-04:00)
Language:

Meteor 1-28 Rocket - Orbit

View from above orbital plane
View from above orbital plane
View from above satellite
View from above satellite

Ground track
Ground track

The orbit data is extracted from the following two-line orbital elements,

1 10114U 77057B   14242.77627095  .00002080  00000-0  11920-3 0  3270
2 10114 097.2614 099.6114 0013426 283.2846 076.6888 15.13573356 28841
Epoch (UTC): 30 August 2014 18:37:49
Eccentricity: 0.0013426
inclination: 97.2614°
perigee height: 516 km
apogee height: 534 km
right ascension of ascending node: 99.6114°
argument of perigee: 283.2846°
revolutions per day: 15.13573356
mean anomaly at epoch: 76.6888°
orbit number at epoch: 2884

The dashed part of the orbit path shows where the satellite is in the earth's shadow,  

DLR